TimeCDT,TemperatureF,Dew PointF,Humidity,Sea Level PressureIn,VisibilityMPH,Wind Direction,Wind SpeedMPH,Gust SpeedMPH,PrecipitationIn,Events,Conditions,WindDirDegrees,DateUTC
12:15 AM,64.6,64.4,99,29.84,4.0,WSW,4.6,-,N/A,,Scattered Clouds,250,2013-08-06 05:15:00
12:35 AM,64.0,63.9,99,29.84,7.0,West,5.8,-,N/A,,Clear,280,2013-08-06 05:35:00
12:55 AM,64.0,63.5,98,29.83,10.0,WNW,5.8,-,N/A,,Clear,300,2013-08-06 05:55:00
1:15 AM,62.6,62.1,98,29.84,7.0,Calm,Calm,-,N/A,,Scattered Clouds,0,2013-08-06 06:15:00
1:35 AM,61.9,61.7,99,29.84,10.0,Calm,Calm,-,N/A,,Scattered Clouds,0,2013-08-06 06:35:00
1:55 AM,60.8,60.3,98,29.83,10.0,NW,3.5,-,N/A,,Scattered Clouds,310,2013-08-06 06:55:00
2:15 AM,60.8,59.9,97,29.83,10.0,Calm,Calm,-,N/A,,Scattered Clouds,0,2013-08-06 07:15:00
2:35 AM,59.4,59.4,100,29.84,5.0,Calm,Calm,-,N/A,,Clear,0,2013-08-06 07:35:00
2:55 AM,58.1,57.7,99,29.84,10.0,WSW,3.5,-,N/A,,Clear,250,2013-08-06 07:55:00
3:15 AM,58.5,58.5,100,29.82,7.0,Calm,Calm,-,N/A,,Clear,0,2013-08-06 08:15:00
3:35 AM,57.6,57.6,100,29.82,3.0,SW,4.6,-,N/A,,Clear,220,2013-08-06 08:35:00
3:55 AM,56.3,56.3,100,29.83,5.0,WSW,4.6,-,N/A,,Clear,250,2013-08-06 08:55:00
4:15 AM,55.6,55.6,100,29.83,7.0,WNW,5.8,-,N/A,,Clear,290,2013-08-06 09:15:00
4:35 AM,56.3,56.3,100,29.81,10.0,Calm,Calm,-,N/A,,Clear,0,2013-08-06 09:35:00
4:55 AM,55.8,55.8,100,29.82,5.0,WSW,3.5,-,N/A,,Clear,250,2013-08-06 09:55:00
5:15 AM,55.6,55.6,100,29.82,3.0,West,3.5,-,N/A,,Clear,270,2013-08-06 10:15:00
5:35 AM,54.5,54.5,100,29.83,1.0,West,4.6,-,N/A,,Mist,260,2013-08-06 10:35:00
5:55 AM,54.5,54.5,100,29.82,7.0,Calm,Calm,-,N/A,,Clear,0,2013-08-06 10:55:00
6:15 AM,55.4,55.4,100,29.83,5.0,Calm,Calm,-,N/A,,Clear,0,2013-08-06 11:15:00
6:35 AM,55.6,55.6,100,29.82,10.0,Calm,Calm,-,N/A,,Clear,0,2013-08-06 11:35:00
6:55 AM,55.6,55.6,100,29.84,10.0,Calm,Calm,-,N/A,,Clear,0,2013-08-06 11:55:00
7:15 AM,56.7,56.7,100,29.84,10.0,SW,3.5,-,N/A,,Clear,230,2013-08-06 12:15:00
7:35 AM,57.6,57.6,100,29.85,10.0,WSW,3.5,-,N/A,,Clear,240,2013-08-06 12:35:00
7:55 AM,58.1,57.9,99,29.84,10.0,Calm,Calm,-,N/A,,Clear,0,2013-08-06 12:55:00
8:15 AM,59.0,58.1,97,29.84,10.0,West,3.5,-,N/A,,Clear,280,2013-08-06 13:15:00
8:35 AM,60.3,58.3,93,29.85,10.0,Calm,Calm,-,N/A,,Clear,0,2013-08-06 13:35:00
8:55 AM,60.8,58.1,91,29.85,10.0,Calm,Calm,-,N/A,,Clear,0,2013-08-06 13:55:00
9:15 AM,61.7,58.3,89,29.85,10.0,Calm,Calm,-,N/A,,Clear,0,2013-08-06 14:15:00
9:35 AM,62.6,58.6,87,29.84,10.0,Calm,Calm,-,N/A,,Clear,0,2013-08-06 14:35:00
9:55 AM,64.0,59.2,84,29.84,10.0,SSW,4.6,-,N/A,,Clear,210,2013-08-06 14:55:00
10:15 AM,66.0,59.0,78,29.84,10.0,SSW,3.5,-,N/A,,Clear,200,2013-08-06 15:15:00
10:35 AM,67.1,58.3,73,29.84,10.0,SW,4.6,-,N/A,,Clear,220,2013-08-06 15:35:00
10:55 AM,68.9,57.4,67,29.84,10.0,SSW,3.5,-,N/A,,Clear,210,2013-08-06 15:55:00
11:15 AM,69.1,56.5,64,29.83,10.0,South,4.6,-,N/A,,Clear,170,2013-08-06 16:15:00
11:35 AM,70.0,57.2,64,29.83,10.0,SSE,3.5,-,N/A,,Clear,160,2013-08-06 16:35:00
11:55 AM,72.1,57.2,59,29.83,10.0,SSW,5.8,-,N/A,,Mostly Cloudy,210,2013-08-06 16:55:00
12:15 PM,71.6,56.3,58,29.82,10.0,South,5.8,-,N/A,,Overcast,170,2013-08-06 17:15:00
12:35 PM,72.0,56.5,58,29.82,10.0,South,8.1,-,N/A,,Overcast,180,2013-08-06 17:35:00
12:55 PM,71.6,55.8,57,29.83,10.0,NW,3.5,-,N/A,,Overcast,310,2013-08-06 17:55:00
1:15 PM,72.5,56.3,57,29.82,10.0,Calm,Calm,-,N/A,,Mostly Cloudy,0,2013-08-06 18:15:00
1:35 PM,73.6,55.9,54,29.80,10.0,Calm,Calm,-,N/A,,Mostly Cloudy,0,2013-08-06 18:35:00
1:55 PM,75.0,57.6,54,29.79,10.0,ESE,3.5,-,N/A,,Scattered Clouds,110,2013-08-06 18:55:00
2:15 PM,75.0,58.1,56,29.80,10.0,Calm,Calm,-,N/A,,Scattered Clouds,0,2013-08-06 19:15:00
2:35 PM,76.5,59.4,55,29.79,10.0,SW,4.6,-,N/A,,Scattered Clouds,220,2013-08-06 19:35:00
2:55 PM,78.1,60.4,54,29.78,10.0,South,5.8,-,N/A,,Clear,180,2013-08-06 19:55:00
3:15 PM,79.0,61.3,55,29.77,10.0,SW,9.2,-,N/A,,Scattered Clouds,230,2013-08-06 20:15:00
3:35 PM,79.2,61.5,55,29.76,10.0,SSW,9.2,-,N/A,,Mostly Cloudy,200,2013-08-06 20:35:00
3:55 PM,80.6,63.1,55,29.75,10.0,SSW,11.5,-,N/A,,Scattered Clouds,210,2013-08-06 20:55:00
4:15 PM,81.5,63.5,54,29.75,10.0,SSW,13.8,17.3,N/A,,Scattered Clouds,210,2013-08-06 21:15:00
4:35 PM,81.7,64.0,55,29.74,10.0,SSW,12.7,17.3,N/A,,Scattered Clouds,210,2013-08-06 21:35:00
4:55 PM,82.2,62.8,52,29.74,10.0,SW,15.0,20.7,N/A,,Scattered Clouds,220,2013-08-06 21:55:00
5:15 PM,82.9,62.6,50,29.74,10.0,SW,12.7,19.6,N/A,,Mostly Cloudy,230,2013-08-06 22:15:00
5:35 PM,83.1,63.0,50,29.72,10.0,SW,12.7,18.4,N/A,,Scattered Clouds,230,2013-08-06 22:35:00
5:55 PM,81.1,62.4,53,29.72,10.0,SW,10.4,18.4,N/A,,Scattered Clouds,230,2013-08-06 22:55:00
6:15 PM,80.1,62.6,55,29.72,10.0,SW,8.1,16.1,N/A,,Scattered Clouds,220,2013-08-06 23:15:00
6:35 PM,79.0,62.8,57,29.72,10.0,SW,9.2,-,N/A,,Mostly Cloudy,230,2013-08-06 23:35:00
6:55 PM,77.9,62.8,60,29.71,10.0,SW,5.8,-,N/A,,Scattered Clouds,230,2013-08-06 23:55:00
7:15 PM,77.2,62.8,61,29.70,10.0,SW,5.8,-,N/A,,Clear,230,2013-08-07 00:15:00
7:35 PM,75.6,63.5,66,29.72,10.0,WNW,4.6,-,N/A,,Mostly Cloudy,290,2013-08-07 00:35:00
7:55 PM,74.3,64.4,71,29.72,10.0,WSW,3.5,-,N/A,,Light Drizzle,240,2013-08-07 00:55:00
8:15 PM,73.8,65.1,74,29.68,10.0,SSE,8.1,-,N/A,Rain,Rain,150,2013-08-07 01:15:00
8:35 PM,71.4,66.0,83,29.72,10.0,West,6.9,-,N/A,,Scattered Clouds,280,2013-08-07 01:35:00
8:55 PM,72.5,63.7,74,29.74,10.0,WSW,12.7,16.1,N/A,,Mostly Cloudy,250,2013-08-07 01:55:00
9:15 PM,68.5,63.0,82,29.79,10.0,West,16.1,26.5,0.03,,Mostly Cloudy,270,2013-08-07 02:15:00
9:35 PM,62.8,61.9,97,29.77,10.0,NNE,11.5,-,0.13,Rain,Light Rain,20,2013-08-07 02:35:00
9:55 PM,62.1,61.7,99,29.67,10.0,ESE,9.2,-,0.14,Rain,Light Rain,110,2013-08-07 02:55:00
10:15 PM,62.1,61.3,97,29.74,10.0,Calm,Calm,-,N/A,,Clear,0,2013-08-07 03:15:00
10:35 PM,61.7,60.8,97,29.77,10.0,SSW,5.8,-,N/A,,Clear,210,2013-08-07 03:35:00
10:55 PM,61.0,60.8,99,29.79,10.0,West,5.8,-,N/A,,Scattered Clouds,270,2013-08-07 03:55:00
11:15 PM,61.0,60.8,99,29.79,10.0,WNW,3.5,-,N/A,,Scattered Clouds,290,2013-08-07 04:15:00
11:35 PM,60.8,60.8,100,29.79,10.0,WNW,3.5,-,N/A,,Clear,290,2013-08-07 04:35:00
11:55 PM,60.4,60.4,100,29.78,10.0,Calm,Calm,-,N/A,,Clear,0,2013-08-07 04:55:00